Powrót do katalogu

CZ-4 DEB

AktywnyPO
NORAD 26329·DEBRIS·🇨🇳 China

Wystrzelony Oct 14, 1999 z Taiyuan Satellite Launch Center

Loading…

Następne Przeloty (najbliższe 24 godziny)

TLE

ŚwieżeSource: Space-Track

Epoka: Sep 14, 2026, 05:41 UTC

1 26329U 99057HN  26257.23698819  .00008398  00000-0  88125-3 0  9995
2 26329  98.2969 359.0441 0043509 227.1735 162.9925 14.89082716400599

Śledź CZ-4 DEB w czasie rzeczywistym z AllMySat

Download on the App Store